Location: Ipswich
(52.0579°N, 1.1528°E)
Time: 21:35:06
(UTC+01:00)

ISS - Pass Details

Date: 23 May 2026
Orbit: 414 x 424 km, 51.6° (Epoch: 15 May)

Event Time Altitude Azimuth Distance (km) Brightness Sun altitude
Rises 22:25:39 0° 276° (W) 2,354 0.7 -10.5°
Reaches altitude 10° 22:29:14 10° 236° (SW) 1,486 -1.0 -10.8°
Maximum altitude 22:29:59 11° 223° (SW) 1,449 -1.2 -10.9°
Drops below altitude 10° 22:30:45 10° 209° (SSW) 1,485 -1.2 -11.0°
Enters shadow 22:31:40 - 195° (SSW) 1,616 -1.2 -11.0°
